Regional Weather Roundup
Issued by NWS Northern Indiana

Home | Current Version | Previous Version | Graphics & Text | Print | Product List | Glossary On
Versions: 1 2 3 4 5 6 7 8 9 10 11 12 13 14 15 16 17 18 19 20 21 22 23 24 25 26 27 28 29 30 31 32 33 34 35 36 37 38 39 40 41 42 43 44 45 46 47 48 49 50
046
ASUS43 KIWX 242310
RWRIWX

KIWX WEATHER ROUNDUP
NATIONAL WEATHER SERVICE NORTHERN INDIANA
700 PM EDT SUN JUL 24 2016

NOTE: "FAIR" INDICATES FEW OR NO CLOUDS BELOW 12,000 FEET WITH NO
SIGNIFICANT WEATHER AND/OR OBSTRUCTIONS TO VISIBILITY.

* THESE STATIONS ARE NOT UNDER NWS QUALITY CONTROL. THEY ALSO MAY NOT
  REPORT WEATHER SUCH AS PRECIPITATION OR FOG.

INZ001>027-250000-
NORTHERN INDIANA

CITY           SKY/WX    TMP DP  RH WIND       PRES   REMARKS
GARY*          PTSUNNY   91 N/A N/A S14       29.88S
VALPARAISO     MOSUNNY   89  77  67 SW12G20   29.90F HX 101
MICHIGAN CITY* MOSUNNY   88  79  74 SW12      29.89S HX 102
LAPORTE*       CLOUDY    88  82  81 W9        29.91F HX 107
KNOX*          MOSUNNY   88  68  51 S10       29.91S
SOUTH BEND     CLOUDY    87  77  72 S13       29.90F HX  99
GOSHEN         MOSUNNY   89  75  63 SW12      29.91F HX  99
MONTICELLO*    SUNNY     90  74  58 SW9       29.92S HX  99
LOGANSPORT*    PTSUNNY   88  77  70 SW12      29.94S HX 100
ROCHESTER*     SUNNY     90  79  70 SW8       29.93S HX 105
WARSAW*        MOSUNNY   88  75  66 SW7       29.92F HX  97
ANGOLA*        SUNNY     88  84  89 SW9       29.93S HX 112
FORT WAYNE     PTSUNNY   90  74  59 SW14      29.93F HX  99
HUNTINGTON*    MOSUNNY  N/A N/A N/A SW6       29.93S
PERU/GRISSOM   SUNNY     90  77  65 SW10      29.92S HX 103
MARION*        SUNNY     88  76  67 SW7       29.95F HAZE    HX  98

$$
INZ028>050-250000-
CENTRAL INDIANA

CITY           SKY/WX    TMP DP  RH WIND       PRES   REMARKS
LAFAYETTE      SUNNY     89  78  70 SW10      29.92S HX 103
KOKOMO*        MOSUNNY   91  73  55 SW15      29.94S HX 100
MUNCIE*        MOSUNNY   91  74  57 SW14      29.95F HX 100
INDIANAPOLIS   PTSUNNY   88  75  65 SW10      29.96F HX  97

$$
MIZ043>046-050>051-056>058-064>065-071>073-077>080-250000-
SOUTHWEST LOWER MICHIGAN

CITY           SKY/WX    TMP DP  RH WIND       PRES   REMARKS
BATTLE CREEK   PTSUNNY   84  77  79 SW12      29.90F
BENTON HARBOR  PTSUNNY   88  77  69 SW8       29.87F HX 100
COLDWATER*     MOSUNNY   86  76  71 SW8       29.91F HX  96
HOLLAND        CLOUDY    86  76  71 SW16      29.86S HX  96
GRAND RAPIDS   CLOUDY    86  76  71 SW12      29.86F HX  96
KALAMAZOO      CLOUDY    88  75  65 S13       29.89S HX  97
STURGIS*       MOSUNNY   86  76  72 SW14      29.90F HX  96
THREE RIVERS*  FAIR      88  75  65 SW12      29.90F HX  98

$$
OHZ001>008-015>018-024>025-250000-
NORTHWEST OHIO

CITY           SKY/WX    TMP DP  RH WIND       PRES   REMARKS
WAUSEON*       FAIR      86  75  70 SW9       29.92S HX  95
DEFIANCE       MOSUNNY   89  74  60 S10       29.91F HX  98
FINDLAY        CLOUDY    86  70  58 SW12      29.93S
TOLEDO EXPRESS CLOUDY    84  77  79 SW5       29.91F
TOLEDO METCALF CLOUDY    83  74  74 S7        29.93S
LIMA           CLOUDY    86  74  67 S7        29.96F

$$
AND FOR LAKE MICHIGAN COASTAL AND OPEN LAKE BUOY OBSERVATIONS

STATION/POSITION TEMP    WIND        PRES    VSBY  WAVE
                 AIR SEA DIR/SP/G                  HT/PER
                 (F)     (DEG/KT/KT) (MB)    (MI)  (FT/S)
CALUMET HARBOR    89                   N/A
MICHIGAN CITY     87     180/ 11/ 13   N/A
BURNS HARBOR      89     210/ 15/ 25 1012.2S
SAINT JOSEPH      87     200/ 13/ 18 1012.5R
SOUTH LAKE BUOY   78 72  200/ 10/ 12 1009.5R         2/ 4
4 MI NW BRIDGMAN  80 74  190/  6/  8 1011.2F         2/ 3
MICHIGAN CITY     83 74  210/ 12/ 16   N/A           2/ 3

$$
&&




USA.gov is the U.S. government's official web portal to all federal, state and local government web resources and services.